Weather History for Boothville, LA

Change the Weather History Date:

Sunday, July 28, 2013

  Actual Average Record
Temperature  
Mean Temperature 81 °F -  
Max Temperature 88 °F - - ()
Min Temperature 75 °F - - ()
Cooling Degree Days 16    
Growing Degree Days 31 (Base 50)    
Moisture  
Dew Point 75 °F    
Average Humidity 82    
Maximum Humidity 94    
Minimum Humidity 63    
Precipitation  
Precipitation 0.34 in - - ()
Sea Level Pressure  
Sea Level Pressure 29.96 in    
Wind  
Wind Speed 14 mph (West)    
Max Wind Speed 23 mph    
Max Gust Speed 28 mph    
Visibility 10 miles    
Events Rain    
T = Trace of Precipitation, MM = Missing Value Source: NWS Daily Summary

Daily Weather History Graph

Daily Weather History Graph

Search for Another Location

Airport:

Trip Planner

Search our weather history database for the weather conditions in past years. The results will help you decide how hot, cold, wet, or windy it might be!

Date:

Astronomy

Jul. 28, 2013 Rise Set
Actual Time 6:15 AM CDT 7:52 PM CDT
Civil Twilight 5:49 AM CDT 8:18 PM CDT
Nautical Twilight 5:18 AM CDT 8:49 PM CDT
Astronomical Twilight 4:45 AM CDT 9:21 PM CDT
Moon 11:51 PM CDT (7/28) 12:22 PM CDT (7/28)
Length of Visible Light 14h 28m
Length of Day
13h 36m
Waning Gibbous, 60% of the Moon is Illuminated
Jul 28
Waning Gibbous
Jul 29
Last Quarter
Aug 6
New
Aug 14
First Quarter
Aug 20
Full

Hourly Weather History & Observations

Time (CDT) Temp. Heat Index Dew Point Humidity Pressure Visibility Wind Dir Wind Speed Gust Speed Precip Events Conditions
12:51 AM 77.0 °F - 73.9 °F 90% 29.94 in 10.0 mi West 23.0 mph 27.6 mph 0.00 in Rain Light Rain
1:51 AM 77.0 °F - 75.0 °F 94% 29.91 in 10.0 mi WSW 16.1 mph 26.5 mph 0.29 in Rain Rain
2:51 AM 78.1 °F - 75.0 °F 90% 29.91 in 10.0 mi SW 17.3 mph - 0.05 in Rain Light Rain
3:20 AM 78.8 °F - 75.2 °F 89% 29.93 in 10.0 mi SW 15.0 mph 24.2 mph 0.00 in   Overcast
3:33 AM 78.8 °F - 75.2 °F 89% 29.93 in 10.0 mi SW 13.8 mph - 0.00 in   Overcast
3:51 AM 79.0 °F - 73.9 °F 84% 29.94 in 10.0 mi SW 11.5 mph - 0.00 in   Mostly Cloudy
4:08 AM 80.6 °F 86.2 °F 75.2 °F 84% 29.93 in 10.0 mi SW 15.0 mph - N/A   Overcast
4:35 AM 75.2 °F - 73.4 °F 94% 29.93 in 10.0 mi SW 15.0 mph 25.3 mph N/A   Overcast
4:46 AM 77.0 °F - 73.4 °F 89% 29.92 in 10.0 mi SW 16.1 mph 23.0 mph N/A   Mostly Cloudy
4:51 AM 77.0 °F - 73.0 °F 88% 29.93 in 10.0 mi SW 16.1 mph 23.0 mph N/A   Mostly Cloudy
5:51 AM 78.1 °F - 73.9 °F 87% 29.94 in 10.0 mi WSW 18.4 mph 24.2 mph N/A   Scattered Clouds
6:51 AM 77.0 °F - 73.9 °F 90% 29.96 in 10.0 mi WSW 15.0 mph 23.0 mph 0.00 in Rain Light Rain
7:51 AM 79.0 °F - 73.9 °F 84% 29.97 in 10.0 mi West 16.1 mph 26.5 mph 0.00 in   Clear
8:37 AM 78.8 °F - 75.2 °F 89% 29.96 in 10.0 mi WSW 16.1 mph 25.3 mph N/A   Scattered Clouds
8:51 AM 80.1 °F 85.1 °F 75.0 °F 85% 29.96 in 10.0 mi WSW 11.5 mph - N/A   Partly Cloudy
9:51 AM 81.0 °F 86.2 °F 73.9 °F 79% 29.98 in 10.0 mi West 18.4 mph 25.3 mph N/A   Mostly Cloudy
10:51 AM 82.0 °F 87.4 °F 73.0 °F 74% 29.98 in 10.0 mi West 19.6 mph - N/A   Clear
11:51 AM 84.0 °F 90.2 °F 73.0 °F 69% 29.97 in 10.0 mi WNW 13.8 mph - N/A   Clear
12:51 PM 86.0 °F 95.1 °F 75.0 °F 70% 29.98 in 10.0 mi WNW 11.5 mph - N/A   Clear
1:14 PM 84.2 °F 92.3 °F 75.2 °F 74% 29.98 in 10.0 mi NW 10.4 mph 17.3 mph N/A   Mostly Cloudy
1:24 PM 86.0 °F 95.1 °F 75.2 °F 70% 29.97 in 10.0 mi NNW 8.1 mph - N/A   Mostly Cloudy
1:33 PM 84.2 °F 92.3 °F 75.2 °F 74% 29.97 in 10.0 mi NNW 6.9 mph - N/A   Mostly Cloudy
1:51 PM 84.9 °F 93.3 °F 75.0 °F 72% 29.97 in 10.0 mi NNW 6.9 mph - N/A   Overcast
2:10 PM 84.2 °F 92.3 °F 75.2 °F 74% 29.97 in 10.0 mi NNW 6.9 mph - N/A   Mostly Cloudy
2:51 PM 86.0 °F 95.1 °F 75.0 °F 70% 29.97 in 10.0 mi NNW 6.9 mph - N/A   Scattered Clouds
3:51 PM 87.1 °F 95.4 °F 73.9 °F 65% 29.96 in 10.0 mi NNW 9.2 mph - N/A   Scattered Clouds
4:51 PM 87.1 °F 94.5 °F 73.0 °F 63% 29.97 in 10.0 mi NNE 3.5 mph - N/A   Overcast
5:51 PM 84.0 °F 93.7 °F 77.0 °F 79% 29.96 in 10.0 mi WSW 11.5 mph - N/A   Overcast
6:51 PM 82.0 °F 88.6 °F 75.0 °F 79% 29.98 in 10.0 mi WSW 6.9 mph - N/A   Partly Cloudy
7:51 PM 82.0 °F 90.2 °F 77.0 °F 85% 29.99 in 10.0 mi SW 9.2 mph - N/A   Clear
8:51 PM 81.0 °F 87.3 °F 75.9 °F 85% 29.99 in 10.0 mi SW 6.9 mph - N/A   Clear
9:51 PM 81.0 °F 87.3 °F 75.9 °F 85% 30.01 in 10.0 mi WSW 4.6 mph - N/A   Clear
10:51 PM 80.1 °F 85.8 °F 77.0 °F 90% 30.01 in 10.0 mi West 5.8 mph - N/A   Partly Cloudy
11:51 PM 79.0 °F - 75.9 °F 90% 30.03 in 10.0 mi West 3.5 mph - N/A   Clear